Millville, NJ

4:40 PM EDT on October 20, 2017 (GMT -0400)
Millville Municipal

Weather History for KMIV - July, 2013

Change the Weather History Date:

Wednesday, July 10, 2013

  Actual Average Record
Temperature  
Mean Temperature 80 °F -  
Max Temperature 87 °F 86 °F 100 °F (1993)
Min Temperature 73 °F 68 °F 55 °F (1954)
Cooling Degree Days 15    
Growing Degree Days 30 (Base 50)    
Moisture  
Dew Point 72 °F    
Average Humidity 77    
Maximum Humidity 94    
Minimum Humidity 58    
Precipitation  
Precipitation 0.00 in - - ()
Sea Level Pressure  
Sea Level Pressure 29.95 in    
Wind  
Wind Speed 3 mph (WSW)    
Max Wind Speed 12 mph    
Max Gust Speed 18 mph    
Visibility 8 miles    
Events Thunderstorm    
Averages and records for this station are not official NWS values.
T = Trace of Precipitation, MM = Missing Value Source: NWS Daily Summary

Daily Weather History Graph

Daily Weather History Graph

Search for Another Location

Airport or City:

Trip Planner

Search our weather history database for the weather conditions in past years. The results will help you decide how hot, cold, wet, or windy it might be!

Date:

Astronomy

Jul. 10, 2013 Rise Set
Actual Time 5:42 AM EDT 8:28 PM EDT
Civil Twilight 5:10 AM EDT 9:00 PM EDT
Nautical Twilight 4:30 AM EDT 9:40 PM EDT
Astronomical Twilight 3:45 AM EDT 10:25 PM EDT
Moon 8:00 AM EDT (7/10) 9:38 PM EDT (7/10)
Length of Visible Light 15h 49m
Length of Day
14h 46m
Waxing Crescent, 5% of the Moon is Illuminated
Jul 10
Waxing Crescent
Jul 15
First Quarter
Jul 22
Full
Jul 29
Last Quarter
Aug 6
New

Hourly Weather History & Observations

Time (EDT) Temp. Heat Index Dew Point Humidity Pressure Visibility Wind Dir Wind Speed Gust Speed Precip Events Conditions
12:54 AM 75.0 °F - 71.1 °F 87% 30.03 in 7.0 mi Calm Calm - N/A   Scattered Clouds
1:54 AM 73.9 °F - 70.0 °F 87% 30.01 in 6.0 mi Calm Calm - N/A   Mostly Cloudy
2:54 AM 73.9 °F - 71.1 °F 91% 29.99 in 7.0 mi Calm Calm - N/A   Mostly Cloudy
3:54 AM 73.9 °F - 71.1 °F 91% 29.98 in 7.0 mi Calm Calm - N/A   Scattered Clouds
4:54 AM 73.9 °F - 71.1 °F 91% 29.98 in 5.0 mi Calm Calm - N/A   Partly Cloudy
5:27 AM 75.2 °F - 71.6 °F 89% 29.98 in 5.0 mi Calm Calm - N/A   Mostly Cloudy
5:54 AM 75.9 °F - 73.0 °F 91% 29.98 in 4.0 mi SW 3.5 mph - N/A   Overcast
6:01 AM 75.2 °F - 73.4 °F 94% 29.99 in 4.0 mi Calm Calm - N/A   Overcast
6:54 AM 77.0 °F - 73.9 °F 90% 29.98 in 5.0 mi Calm Calm - N/A   Mostly Cloudy
7:13 AM 77.0 °F - 73.4 °F 89% 29.99 in 6.0 mi Calm Calm - N/A   Overcast
7:54 AM 78.1 °F - 73.9 °F 87% 29.98 in 7.0 mi SSW 4.6 mph - N/A   Overcast
8:40 AM 80.6 °F 86.2 °F 75.2 °F 84% 29.98 in 7.0 mi Variable 5.8 mph - N/A   Mostly Cloudy
8:54 AM 80.1 °F 85.1 °F 75.0 °F 85% 29.98 in 8.0 mi SW 5.8 mph - N/A   Mostly Cloudy
9:46 AM 82.4 °F 88.2 °F 73.4 °F 74% 29.98 in 8.0 mi WSW 10.4 mph 17.3 mph N/A   Mostly Cloudy
9:54 AM 82.0 °F 87.9 °F 73.9 °F 76% 29.98 in 8.0 mi WSW 9.2 mph - N/A   Scattered Clouds
10:54 AM 82.9 °F 88.8 °F 73.0 °F 72% 29.98 in 9.0 mi WSW 5.8 mph - N/A   Mostly Cloudy
11:54 AM 84.0 °F 90.2 °F 73.0 °F 69% 29.97 in 9.0 mi West 8.1 mph - N/A   Scattered Clouds
12:54 PM 84.9 °F 92.1 °F 73.9 °F 69% 29.96 in 9.0 mi West 11.5 mph - N/A   Partly Cloudy
1:54 PM 86.0 °F 91.5 °F 71.1 °F 61% 29.94 in 10.0 mi WNW 10.4 mph 18.4 mph N/A   Scattered Clouds
2:16 PM 86.0 °F 90.4 °F 69.8 °F 58% 29.93 in 10.0 mi West 9.2 mph - N/A Thunderstorm Scattered Clouds
2:31 PM 86.0 °F 91.8 °F 71.6 °F 62% 29.92 in 10.0 mi SW 9.2 mph - N/A   Scattered Clouds
2:54 PM 87.1 °F 93.6 °F 72.0 °F 61% 29.90 in 10.0 mi Variable 5.8 mph - N/A   Scattered Clouds
3:54 PM 86.0 °F 91.5 °F 71.1 °F 61% 29.89 in 10.0 mi Variable 5.8 mph - N/A   Clear
4:54 PM 84.9 °F 92.1 °F 73.9 °F 69% 29.88 in 10.0 mi Variable 6.9 mph - N/A   Partly Cloudy
5:54 PM 86.0 °F 93.8 °F 73.9 °F 67% 29.86 in 10.0 mi Variable 6.9 mph - N/A   Clear
6:54 PM 82.9 °F 87.5 °F 71.1 °F 67% 29.87 in 10.0 mi Variable 4.6 mph - N/A   Clear
7:54 PM 82.0 °F 87.9 °F 73.9 °F 76% 29.88 in 9.0 mi Variable 3.5 mph - N/A   Clear
8:54 PM 82.0 °F 86.7 °F 72.0 °F 71% 29.89 in 10.0 mi SW 8.1 mph - N/A   Clear
9:54 PM 81.0 °F 85.8 °F 73.0 °F 77% 29.90 in 10.0 mi SW 5.8 mph - N/A   Clear
10:54 PM 81.0 °F 85.8 °F 73.0 °F 77% 29.87 in 10.0 mi WSW 9.2 mph - N/A   Clear
11:54 PM 80.1 °F 82.9 °F 69.1 °F 69% 29.88 in 10.0 mi WSW 4.6 mph - N/A   Clear